Home > Weather > Cornwall > Past weeks

Flag for Canada Weather for the Past 2 Weeks in Cornwall, Ontario, Canada

Now
48 °F

Cool.


Feels Like: 45 °F
Forecast: 44 / 61 °F
Wind: 7 mph from Northeast

Location: St Anicet

Current Time: May 5, 2016 at 1:50:27 AM

Latest Report: May 5, 2016 at 1:00 AM


Visibility: N/A

Pressure: 29.83 "Hg

Humidity: 87%

Dew Point: 44 °F

Location of CornwallLocation

Historic Weather in Cornwall — Graph

°F

Cornwall Temperature Yesterday

Maximum temperature yesterday: 57 °F (at 3:00 PM)
Minimum temperature yesterday: 41 °F (at 12:00 AM)
Average temperature yesterday: 48 °F

High & Low Weather Summary for the Past Weeks

 TemperatureHumidityPressure
High74 °F (Apr 21, 4:00 PM)100% (Apr 22, 10:00 AM)30.38 "Hg (Apr 22, 10:00 AM)
Low26 °F (Apr 30, 6:00 AM)15% (Apr 20, 5:00 PM)29.78 "Hg (May 4, 4:00 PM)
Average45 °F57%30.04 "Hg
* Reported Midnight between Apr 19 and Apr 20 — Midnight between May 4 and May 5, Cornwall, Weather by CustomWeather, © 2016

Note: Actual official high and low records may vary slightly from our data, if they occured in-between our weather recording intervals... More about our weather records

Advertising

Cornwall Weather History for the Previous 24 Hours

Scroll right to see more
 ConditionsComfort  
Time TempWeatherWind HumidityBarometerVisibility
12:00 AM
Thu, May 5
49 °FCool.6 mph84%29.83 "HgN/A
11:00 PM
Wed, May 4
50 °FCool.5 mph80%29.82 "HgN/A
10:00 PM52 °FCool.6 mph77%29.82 "HgN/A
9:00 PM52 °FCool.5 mph81%29.81 "HgN/A
8:00 PM54 °FCool.5 mph78%29.80 "HgN/A
7:00 PM55 °FCool.9 mph74%29.80 "HgN/A
6:00 PM55 °FCool.12 mph73%29.79 "HgN/A
5:00 PM56 °FCool.13 mph70%29.78 "HgN/A
4:00 PM54 °FCool.14 mph75%29.78 "HgN/A
3:00 PM57 °FCool.15 mph70%29.78 "HgN/A
2:00 PM54 °FCool.14 mph72%29.80 "HgN/A
1:00 PM54 °FCool.14 mph72%29.81 "HgN/A
12:00 PM50 °FCool.14 mph80%29.82 "HgN/A
11:00 AM48 °FCool.9 mph84%29.83 "HgN/A
10:00 AM46 °FCool.13 mph85%29.82 "HgN/A
9:00 AM45 °FQuite cool.13 mph85%29.83 "HgN/A
8:00 AM44 °FQuite cool.9 mph87%29.83 "HgN/A
7:00 AM42 °FQuite cool.8 mph89%29.82 "HgN/A
6:00 AM41 °FQuite cool.6 mph89%29.81 "HgN/A
5:00 AM41 °FQuite cool.6 mph89%29.81 "HgN/A
4:00 AM41 °FQuite cool.6 mph88%29.81 "HgN/A
3:00 AM41 °FQuite cool.8 mph91%29.81 "HgN/A
2:00 AM42 °FQuite cool.7 mph89%29.82 "HgN/A
1:00 AM42 °FQuite cool.7 mph88%29.83 "HgN/A
Weather by CustomWeather, © 2016

See weather overviewHow to use our weather pages